| time (UTC) | temp C | wind direction | speed KPH | gust KPH | rain 1hr cm | rain 24hr cm | rain mn cm | humidity % | barometer mb |
| 20260505070305 | 20 | 126 | 3.2 | 4.8 | 0.00 | 0.00 | 0.00 | 87 | 1018.2 |
| 20260505065800 | 20 | 78 | 1.6 | 3.2 | 0.00 | 0.00 | 0.00 | 87 | 1017.8 |
| 20260505065258 | 20 | 52 | 3.2 | 3.2 | 0.00 | 0.00 | 0.00 | 87 | 1018.2 |
| 20260505064755 | 20 | 125 | 1.6 | 1.6 | 0.00 | 0.00 | 0.00 | 87 | 1018.5 |
| 20260505064252 | 20 | 47 | 3.2 | 3.2 | 0.00 | 0.00 | 0.00 | 86 | 1018.5 |
| 20260505063749 | 20 | 56 | 4.8 | 4.8 | 0.00 | 0.00 | 0.00 | 86 | 1018.5 |
| 20260505063246 | 21 | 71 | 6.4 | 8.0 | 0.00 | 0.00 | 0.00 | 86 | 1018.5 |
| 20260505062742 | 21 | 89 | 3.2 | 3.2 | 0.00 | 0.00 | 0.00 | 86 | 1018.8 |
| 20260505062240 | 21 | 74 | 1.6 | 3.2 | 0.00 | 0.00 | 0.00 | 86 | 1018.5 |
| 20260505061737 | 21 | 74 | 3.2 | 3.2 | 0.00 | 0.00 | 0.00 | 86 | 1019.2 |
| 20260505061235 | 21 | 84 | 1.6 | 4.8 | 0.00 | 0.00 | 0.00 | 86 | 1018.8 |
| 20260505060731 | 21 | 71 | 3.2 | 4.8 | 0.00 | 0.00 | 0.00 | 86 | 1018.8 |
| 20260505060229 | 21 | 82 | 3.2 | 4.8 | 0.00 | 0.00 | 0.00 | 86 | 1019.2 |
| 20260505055724 | 21 | 32 | 1.6 | 3.2 | 0.00 | 0.00 | 0.00 | 86 | 1019.2 |
| 20260505055220 | 21 | 75 | 3.2 | 3.2 | 0.00 | 0.00 | 0.00 | 86 | 1019.2 |
| 20260505054718 | 21 | 90 | 1.6 | 3.2 | 0.00 | 0.00 | 0.00 | 86 | 1019.2 |
| 20260505054216 | 21 | 5 | 3.2 | 4.8 | 0.00 | 0.00 | 0.00 | 86 | 1019.2 |
| 20260505053714 | 21 | 78 | 3.2 | 3.2 | 0.00 | 0.00 | 0.00 | 86 | 1019.2 |
| 20260505053209 | 21 | 135 | 1.6 | 1.6 | 0.00 | 0.00 | 0.00 | 86 | 1019.2 |
| 20260505052707 | 21 | 82 | 3.2 | 3.2 | 0.00 | 0.00 | 0.00 | 85 | 1019.2 |
| 20260505052204 | 21 | 88 | 1.6 | 1.6 | 0.00 | 0.00 | 0.00 | 85 | 1019.2 |
| 20260505051701 | 21 | 37 | 1.6 | 3.2 | 0.00 | 0.00 | 0.00 | 85 | 1019.2 |
| 20260505051159 | 21 | 130 | 3.2 | 3.2 | 0.00 | 0.00 | 0.00 | 85 | 1019.2 |
| 20260505050656 | 21 | 102 | 1.6 | 1.6 | 0.00 | 0.00 | 0.00 | 85 | 1019.2 |
| 20260505050150 | 21 | 82 | 1.6 | 1.6 | 0.00 | 0.00 | 0.00 | 84 | 1019.2 |
| 20260505041624 | 21 | 106 | 1.6 | 3.2 | 0.00 | 0.00 | 0.00 | 82 | 1019.5 |
| 20260505041122 | 21 | 133 | 1.6 | 3.2 | 0.00 | 0.00 | 0.00 | 82 | 1019.5 |
| 20260505040619 | 22 | 160 | 4.8 | 4.8 | 0.00 | 0.00 | 0.00 | 82 | 1019.5 |
| 20260505040116 | 22 | 47 | 3.2 | 3.2 | 0.00 | 0.00 | 0.00 | 81 | 1019.5 |
| 20260505035612 | 22 | 162 | 0.0 | 1.6 | 0.00 | 0.00 | 0.00 | 81 | 1019.9 |
| 20260505035108 | 22 | 131 | 1.6 | 1.6 | 0.00 | 0.00 | 0.00 | 81 | 1019.5 |
| 20260505034605 | 22 | 79 | 4.8 | 8.0 | 0.00 | 0.00 | 0.00 | 81 | 1019.5 |
| 20260505034102 | 22 | 55 | 1.6 | 3.2 | 0.00 | 0.00 | 0.00 | 80 | 1019.5 |
| 20260505033559 | 22 | 105 | 3.2 | 3.2 | 0.00 | 0.00 | 0.00 | 80 | 1019.9 |
| 20260505033057 | 22 | 101 | 3.2 | 3.2 | 0.00 | 0.00 | 0.00 | 80 | 1019.5 |
| 20260505032555 | 22 | 68 | 4.8 | 4.8 | 0.00 | 0.00 | 0.00 | 80 | 1019.5 |
| 20260505032051 | 22 | 78 | 3.2 | 3.2 | 0.00 | 0.00 | 0.00 | 79 | 1019.5 |
| 20260505031548 | 22 | 49 | 4.8 | 8.0 | 0.00 | 0.00 | 0.00 | 79 | 1019.5 |
| 20260505031044 | 22 | 78 | 4.8 | 4.8 | 0.00 | 0.00 | 0.00 | 78 | 1020.2 |
| 20260505030542 | 22 | 133 | 1.6 | 1.6 | 0.00 | 0.00 | 0.00 | 78 | 1019.9 |
| 20260505030037 | 23 | 112 | 6.4 | 8.0 | 0.00 | 0.00 | 0.00 | 78 | 1019.9 |
| 20260505025533 | 23 | 44 | 4.8 | 4.8 | 0.00 | 0.00 | 0.00 | 78 | 1019.9 |
| 20260505025033 | 23 | 64 | 3.2 | 4.8 | 0.00 | 0.00 | 0.00 | 77 | 1019.9 |
| 20260505024529 | 23 | 146 | 0.0 | 3.2 | 0.00 | 0.00 | 0.00 | 77 | 1019.9 |
| 20260505024026 | 23 | 102 | 4.8 | 8.0 | 0.00 | 0.00 | 0.00 | 76 | 1019.2 |
| 20260505023523 | 23 | 113 | 1.6 | 3.2 | 0.00 | 0.00 | 0.00 | 76 | 1019.2 |
| 20260505023021 | 23 | 139 | 1.6 | 3.2 | 0.00 | 0.00 | 0.00 | 76 | 1019.5 |
| 20260505022518 | 23 | 79 | 4.8 | 9.7 | 0.00 | 0.00 | 0.00 | 75 | 1019.5 |
| 20260505022015 | 23 | 175 | 4.8 | 9.7 | 0.00 | 0.00 | 0.00 | 75 | 1019.2 |
| 20260505021512 | 23 | 120 | 1.6 | 3.2 | 0.00 | 0.00 | 0.00 | 75 | 1019.5 |
| 20260505021008 | 23 | 72 | 6.4 | 9.7 | 0.00 | 0.00 | 0.00 | 74 | 1019.5 |
| 20260505020503 | 23 | 94 | 3.2 | 3.2 | 0.00 | 0.00 | 0.00 | 74 | 1019.5 |
| 20260505015959 | 23 | 86 | 4.8 | 4.8 | 0.00 | 0.00 | 0.00 | 74 | 1019.2 |
| 20260505015457 | 23 | 86 | 6.4 | 9.7 | 0.00 | 0.00 | 0.00 | 74 | 1019.5 |
| 20260505014954 | 24 | 73 | 4.8 | 8.0 | 0.00 | 0.00 | 0.00 | 73 | 1019.2 |
| 20260505014451 | 24 | 91 | 1.6 | 1.6 | 0.00 | 0.00 | 0.00 | 73 | 1019.2 |
| 20260505013948 | 24 | 68 | 6.4 | 11.3 | 0.00 | 0.00 | 0.00 | 73 | 1019.2 |
| 20260505013445 | 24 | 75 | 6.4 | 8.0 | 0.00 | 0.00 | 0.00 | 72 | 1018.8 |
| 20260505012942 | 24 | 138 | 4.8 | 4.8 | 0.00 | 0.00 | 0.00 | 72 | 1018.8 |
| 20260505012441 | 24 | 47 | 4.8 | 4.8 | 0.00 | 0.00 | 0.00 | 72 | 1018.8 |
| 20260505011937 | 25 | 112 | 4.8 | 8.0 | 0.00 | 0.00 | 0.00 | 71 | 1018.8 |
| 20260505011433 | 25 | 129 | 4.8 | 8.0 | 0.00 | 0.00 | 0.00 | 71 | 1018.8 |
| 20260505010930 | 25 | 114 | 4.8 | 8.0 | 0.00 | 0.00 | 0.00 | 71 | 1018.8 |
| 20260505010426 | 25 | 76 | 6.4 | 8.0 | 0.00 | 0.00 | 0.00 | 70 | 1018.5 |
| 20260505005922 | 25 | 80 | 8.0 | 11.3 | 0.00 | 0.00 | 0.00 | 69 | 1018.5 |
| 20260505005419 | 25 | 137 | 4.8 | 8.0 | 0.00 | 0.00 | 0.00 | 69 | 1018.5 |
| 20260505004917 | 25 | 202 | 4.8 | 9.7 | 0.00 | 0.00 | 0.00 | 68 | 1018.5 |
| 20260505004413 | 25 | 82 | 4.8 | 4.8 | 0.00 | 0.00 | 0.00 | 68 | 1018.5 |
| 20260505003910 | 25 | 107 | 6.4 | 9.7 | 0.00 | 0.00 | 0.00 | 67 | 1018.5 |
| 20260505003407 | 26 | 134 | 8.0 | 11.3 | 0.00 | 0.00 | 0.00 | 67 | 1018.2 |
| 20260505002903 | 26 | 333 | 3.2 | 3.2 | 0.00 | 0.00 | 0.00 | 66 | 1018.2 |
| 20260505002400 | 26 | 86 | 9.7 | 11.3 | 0.00 | 0.00 | 0.00 | 65 | 1017.8 |
| 20260505001858 | 26 | 54 | 4.8 | 4.8 | 0.00 | 0.00 | 0.00 | 65 | 1018.2 |
| 20260505001355 | 26 | 62 | 3.2 | 3.2 | 0.00 | 0.00 | 0.00 | 65 | 1018.2 |
| 20260505000853 | 26 | 105 | 1.6 | 3.2 | 0.00 | 0.00 | 0.00 | 65 | 1017.8 |
| 20260505000351 | 26 | 67 | 4.8 | 8.0 | 0.00 | 0.00 | 0.00 | 64 | 1017.5 |
| 20260504235847 | 26 | 88 | 1.6 | 1.6 | 0.00 | 0.00 | 0.00 | 64 | 1017.8 |
| 20260504235344 | 26 | 73 | 6.4 | 8.0 | 0.00 | 0.00 | 0.00 | 63 | 1017.5 |
| 20260504234840 | 26 | 100 | 8.0 | 9.7 | 0.00 | 0.00 | 0.00 | 63 | 1017.5 |
| 20260504234338 | 26 | 149 | 4.8 | 4.8 | 0.00 | 0.00 | 0.00 | 62 | 1017.5 |
| 20260504233834 | 27 | 81 | 4.8 | 8.0 | 0.00 | 0.00 | 0.00 | 61 | 1017.5 |
| 20260504233330 | 27 | 139 | 3.2 | 3.2 | 0.00 | 0.00 | 0.00 | 61 | 1017.5 |
| 20260504232827 | 27 | 85 | 8.0 | 11.3 | 0.00 | 0.00 | 0.00 | 61 | 1017.5 |
| 20260504232324 | 27 | 70 | 4.8 | 8.0 | 0.00 | 0.00 | 0.00 | 60 | 1017.1 |
| 20260504231821 | 27 | 81 | 4.8 | 4.8 | 0.00 | 0.00 | 0.00 | 59 | 1017.1 |
| 20260504231318 | 27 | 72 | 6.4 | 11.3 | 0.00 | 0.00 | 0.00 | 58 | 1017.1 |
| 20260504230814 | 27 | 100 | 3.2 | 8.0 | 0.00 | 0.00 | 0.00 | 58 | 1017.1 |
| 20260504230312 | 27 | 85 | 6.4 | 9.7 | 0.00 | 0.00 | 0.00 | 58 | 1017.1 |
| 20260504225810 | 27 | 140 | 1.6 | 3.2 | 0.00 | 0.00 | 0.00 | 57 | 1016.8 |
| 20260504225306 | 27 | 103 | 4.8 | 4.8 | 0.00 | 0.00 | 0.00 | 56 | 1017.1 |
| 20260504224803 | 28 | 91 | 8.0 | 9.7 | 0.00 | 0.00 | 0.00 | 55 | 1016.8 |
| 20260504224300 | 28 | 120 | 8.0 | 9.7 | 0.00 | 0.00 | 0.00 | 54 | 1017.1 |
| 20260504223757 | 28 | 113 | 9.7 | 14.5 | 0.00 | 0.00 | 0.00 | 55 | 1017.1 |
| 20260504223252 | 28 | 45 | 9.7 | 12.9 | 0.00 | 0.00 | 0.00 | 54 | 1017.1 |
| 20260504222749 | 28 | 149 | 6.4 | 11.3 | 0.00 | 0.00 | 0.00 | 54 | 1017.1 |
| 20260504222246 | 29 | 35 | 6.4 | 8.0 | 0.00 | 0.00 | 0.00 | 53 | 1016.8 |
| 20260504221744 | 29 | 40 | 4.8 | 4.8 | 0.00 | 0.00 | 0.00 | 52 | 1016.8 |
| 20260504221241 | 29 | 43 | 4.8 | 8.0 | 0.00 | 0.00 | 0.00 | 51 | 1017.1 |
| 20260504220737 | 28 | 107 | 1.6 | 3.2 | 0.00 | 0.00 | 0.00 | 53 | 1017.1 |
| 20260504220235 | 28 | 159 | 3.2 | 8.0 | 0.00 | 0.00 | 0.00 | 52 | 1017.1 |
| 20260504215732 | 29 | 3 | 6.4 | 11.3 | 0.00 | 0.00 | 0.00 | 52 | 1017.1 |
| 20260504215228 | 29 | 147 | 1.6 | 3.2 | 0.00 | 0.00 | 0.00 | 51 | 1017.1 |
| 20260504214725 | 29 | 35 | 4.8 | 4.8 | 0.00 | 0.00 | 0.00 | 51 | 1017.1 |
| 20260504214221 | 28 | 68 | 4.8 | 9.7 | 0.00 | 0.00 | 0.00 | 50 | 1017.1 |
| 20260504213718 | 29 | 33 | 8.0 | 16.1 | 0.00 | 0.00 | 0.00 | 51 | 1017.1 |
| 20260504213214 | 29 | 149 | 4.8 | 8.0 | 0.00 | 0.00 | 0.00 | 52 | 1017.1 |
| 20260504212711 | 28 | 79 | 4.8 | 8.0 | 0.00 | 0.00 | 0.00 | 51 | 1017.1 |
| 20260504212208 | 30 | 182 | 6.4 | 8.0 | 0.00 | 0.00 | 0.00 | 51 | 1017.1 |
| 20260504211705 | 29 | 68 | 4.8 | 8.0 | 0.00 | 0.00 | 0.00 | 51 | 1017.1 |
| 20260504211201 | 29 | 192 | 1.6 | 4.8 | 0.00 | 0.00 | 0.00 | 52 | 1017.1 |
| 20260504210659 | 28 | 202 | 3.2 | 3.2 | 0.00 | 0.00 | 0.00 | 51 | 1017.5 |
| 20260504210156 | 28 | 32 | 8.0 | 9.7 | 0.00 | 0.00 | 0.00 | 52 | 1017.5 |
| 20260504205653 | 29 | 56 | 8.0 | 11.3 | 0.00 | 0.00 | 0.00 | 51 | 1017.5 |
| 20260504205150 | 29 | 38 | 3.2 | 4.8 | 0.00 | 0.00 | 0.00 | 50 | 1017.5 |
| 20260504204649 | 28 | 143 | 8.0 | 9.7 | 0.00 | 0.00 | 0.00 | 50 | 1017.5 |
| 20260504204147 | 29 | 89 | 4.8 | 8.0 | 0.00 | 0.00 | 0.00 | 51 | 1017.1 |
| 20260504203645 | 29 | 75 | 6.4 | 8.0 | 0.00 | 0.00 | 0.00 | 49 | 1017.5 |
| 20260504203143 | 28 | 35 | 12.9 | 14.5 | 0.00 | 0.00 | 0.00 | 49 | 1017.5 |
| 20260504202642 | 28 | 208 | 8.0 | 12.9 | 0.00 | 0.00 | 0.00 | 51 | 1017.5 |
| 20260504202140 | 28 | 207 | 3.2 | 4.8 | 0.00 | 0.00 | 0.00 | 48 | 1017.5 |
| 20260504201636 | 28 | 169 | 9.7 | 12.9 | 0.00 | 0.00 | 0.00 | 50 | 1017.5 |
| 20260504201134 | 29 | 153 | 8.0 | 11.3 | 0.00 | 0.00 | 0.00 | 50 | 1017.5 |
| 20260504200631 | 29 | 68 | 6.4 | 9.7 | 0.00 | 0.00 | 0.00 | 49 | 1017.5 |
| 20260504200128 | 29 | 75 | 1.6 | 3.2 | 0.00 | 0.00 | 0.00 | 47 | 1017.5 |
| 20260504195623 | 29 | 80 | 4.8 | 4.8 | 0.00 | 0.00 | 0.00 | 49 | 1017.8 |
| 20260504195120 | 29 | 26 | 11.3 | 12.9 | 0.00 | 0.00 | 0.00 | 49 | 1018.2 |
| 20260504194617 | 29 | 177 | 6.4 | 9.7 | 0.00 | 0.00 | 0.00 | 51 | 1017.8 |
| 20260504194113 | 28 | 328 | 4.8 | 8.0 | 0.00 | 0.00 | 0.00 | 48 | 1017.8 |
| 20260504193609 | 28 | 73 | 3.2 | 4.8 | 0.00 | 0.00 | 0.00 | 50 | 1018.2 |
| 20260504193108 | 29 | 99 | 8.0 | 12.9 | 0.00 | 0.00 | 0.00 | 48 | 1018.2 |
| 20260504192606 | 30 | 346 | 4.8 | 4.8 | 0.00 | 0.00 | 0.00 | 48 | 1018.2 |
| 20260504192103 | 29 | 175 | 1.6 | 3.2 | 0.00 | 0.00 | 0.00 | 48 | 1018.2 |
| 20260504191601 | 29 | 86 | 9.7 | 12.9 | 0.00 | 0.00 | 0.00 | 49 | 1018.2 |
| 20260504191057 | 30 | 129 | 3.2 | 4.8 | 0.00 | 0.00 | 0.00 | 49 | 1018.2 |
| 20260504190553 | 28 | 101 | 3.2 | 4.8 | 0.00 | 0.00 | 0.00 | 49 | 1018.2 |
| 20260504190050 | 27 | 51 | 4.8 | 8.0 | 0.00 | 0.00 | 0.00 | 52 | 1018.5 |
| 20260504185547 | 28 | 51 | 6.4 | 9.7 | 0.00 | 0.00 | 0.00 | 53 | 1018.5 |
| 20260504185043 | 28 | 216 | 1.6 | 1.6 | 0.00 | 0.00 | 0.00 | 50 | 1018.8 |
| 20260504184539 | 30 | 46 | 8.0 | 12.9 | 0.00 | 0.00 | 0.00 | 48 | 1018.8 |
| 20260504184034 | 30 | 120 | 6.4 | 8.0 | 0.00 | 0.00 | 0.00 | 47 | 1019.2 |
| 20260504183532 | 28 | 32 | 4.8 | 8.0 | 0.00 | 0.00 | 0.00 | 50 | 1018.8 |
| 20260504183030 | 29 | 103 | 8.0 | 12.9 | 0.00 | 0.00 | 0.00 | 48 | 1019.2 |
| 20260504182526 | 28 | 69 | 4.8 | 4.8 | 0.00 | 0.00 | 0.00 | 50 | 1019.2 |
| 20260504182024 | 28 | 187 | 1.6 | 1.6 | 0.00 | 0.00 | 0.00 | 51 | 1019.2 |
| 20260504181521 | 28 | 54 | 3.2 | 3.2 | 0.00 | 0.00 | 0.00 | 51 | 1019.2 |
| 20260504181019 | 27 | 90 | 8.0 | 11.3 | 0.00 | 0.00 | 0.00 | 53 | 1019.9 |
| 20260504180518 | 27 | 100 | 1.6 | 1.6 | 0.00 | 0.00 | 0.00 | 52 | 1019.9 |
| 20260504180016 | 28 | 23 | 6.4 | 14.5 | 0.00 | 0.00 | 0.00 | 52 | 1019.9 |
| 20260504175513 | 28 | 34 | 8.0 | 9.7 | 0.00 | 0.00 | 0.00 | 51 | 1019.5 |
| 20260504175010 | 27 | 180 | 0.0 | 3.2 | 0.00 | 0.00 | 0.00 | 55 | 1019.2 |
| 20260504174508 | 27 | 61 | 9.7 | 12.9 | 0.00 | 0.00 | 0.00 | 52 | 1019.5 |
| 20260504174005 | 27 | 77 | 4.8 | 9.7 | 0.00 | 0.00 | 0.00 | 53 | 1019.9 |
| 20260504173501 | 27 | 62 | 9.7 | 11.3 | 0.00 | 0.00 | 0.00 | 53 | 1019.9 |
| 20260504172959 | 27 | 54 | 6.4 | 9.7 | 0.00 | 0.00 | 0.00 | 54 | 1019.9 |
| 20260504172454 | 27 | 42 | 8.0 | 9.7 | 0.00 | 0.00 | 0.00 | 51 | 1019.9 |
| 20260504171951 | 27 | 79 | 6.4 | 9.7 | 0.00 | 0.00 | 0.00 | 54 | 1019.9 |
| 20260504171448 | 27 | 59 | 6.4 | 11.3 | 0.00 | 0.00 | 0.00 | 51 | 1019.9 |
| 20260504170945 | 27 | 93 | 3.2 | 8.0 | 0.00 | 0.00 | 0.00 | 53 | 1020.2 |
| 20260504170441 | 27 | 171 | 6.4 | 8.0 | 0.00 | 0.00 | 0.00 | 52 | 1020.2 |
| 20260504160401 | 26 | 38 | 11.3 | 16.1 | 0.00 | 0.00 | 0.00 | 56 | 1020.9 |
| 20260504150825 | 26 | 48 | 8.0 | 9.7 | 0.00 | 0.00 | 0.00 | 58 | 1020.9 |
| 20260504150322 | 25 | 11 | 11.3 | 16.1 | 0.00 | 0.00 | 0.00 | 62 | 1020.9 |
| 20260504141252 | 24 | 65 | 4.8 | 4.8 | 0.00 | 0.00 | 0.00 | 68 | 1020.5 |
| 20260504140748 | 24 | 88 | 14.5 | 16.1 | 0.00 | 0.00 | 0.00 | 69 | 1020.5 |
| 20260504140244 | 23 | 96 | 14.5 | 17.7 | 0.00 | 0.00 | 0.00 | 69 | 1020.5 |
| 20260504130713 | 22 | 79 | 6.4 | 9.7 | 0.00 | 0.00 | 0.00 | 75 | 1020.2 |
| 20260504130208 | 22 | 48 | 4.8 | 4.8 | 0.00 | 0.00 | 0.00 | 76 | 1020.2 |
| 20260504120133 | 20 | 77 | 1.6 | 1.6 | 0.00 | 0.00 | 0.00 | 81 | 1020.2 |
| 20260504110600 | 19 | 13 | 6.4 | 9.7 | 0.00 | 0.00 | 0.00 | 86 | 1019.9 |
| 20260504100522 | 20 | 121 | 1.6 | 1.6 | 0.00 | 0.00 | 0.00 | 84 | 1019.2 |
| 20260504081915 | 20 | 4 | 6.4 | 11.3 | 0.00 | 0.00 | 0.00 | 86 | 1019.2 |
| 20260504081412 | 20 | 173 | 3.2 | 3.2 | 0.00 | 0.00 | 0.00 | 85 | 1019.2 |
| 20260504080908 | 20 | 7 | 4.8 | 4.8 | 0.00 | 0.00 | 0.00 | 85 | 1018.8 |
| 20260504080405 | 20 | 81 | 3.2 | 8.0 | 0.00 | 0.00 | 0.00 | 85 | 1019.2 |